User: anonymous   Login
Location: Caltech
(34.1382°N, 118.1253°W)
Time: 00:46:07
(UTC-07:00)
Language:

ATLAS 5 CENTAUR R/B - Orbit

View from above orbital plane
View from above orbital plane
View from above satellite
View from above satellite

Ground track
Ground track

The orbit data is extracted from the following two-line orbital elements,

1 30778U 07006G   14296.52498391  .00152114  00000-0  12657-2 0  1462
2 30778 035.6814 007.5188 0002608 338.5608 151.3312 15.68686146424942
Epoch (UTC): 23 October 2014 12:35:58
Eccentricity: 0.0002608
inclination: 35.6814°
perigee height: 361 km
apogee height: 364 km
right ascension of ascending node: 7.5188°
argument of perigee: 338.5608°
revolutions per day: 15.68686146
mean anomaly at epoch: 151.3312°
orbit number at epoch: 42494

The dashed part of the orbit path shows where the satellite is in the earth's shadow,  

DLR